Regional Weather Roundup
Issued by NWS Charleston, SC

Current Version | Previous Version | Graphics & Text | Print | Product List | Glossary On
Versions: 1 2 3 4 5 6 7 8 9 10 11 12 13 14 15 16 17 18 19 20 21 22 23 24 25 26 27 28 29 30 31 32 33 34 35 36 37 38 39 40 41 42 43 44 45 46 47 48 49 50
000
ASUS42 KCHS 260912
RWRCHS

Regional Weather Roundup
National Weather Service Charleston SC
500 AM EDT SAT MAY 26 2018

NOTE: "fair" indicates few or no clouds below 12,000 feet with no
significant weather and/or obstructions to visibility.

Not all stations are quality controlled. Use data with caution,
especially dewpoint observations.

SCZ027-030-031-034>040-042>050-261000-
...Southeast South Carolina...

CITY           SKY/WX    TMP DP  RH WIND       PRES   REMARKS
N Charleston   FAIR      73  72  96 CALM      29.98S
Waterfront Prk   N/A     77  74  91 S5        29.82S
Mount Pleasant PTSUNNY   73  73 100 CALM      29.99S
Johns Island   CLOUDY    77  75  94 CALM      29.99S
Pinopolis        N/A     72  72 100 VRB2      29.90S
Moncks Corner  FAIR      68  66  94 CALM      29.98F
Summerville    FAIR      68  68 100 CALM      29.99S
Beaufort MCAS  FAIR      76  74  93 S3        29.97S
Beaufort Arpt  FAIR      73  72  94 S6        29.97S
Hilton Head Is MOCLDY    77  73  88 VRB6      29.98S
Walterboro     FOG       68  68 100 CALM      29.98F VSB 1/2
Allendale      CLOUDY    72  72 100 CALM      29.96F FOG

...Southern Midlands and Pee Dee...

CITY           SKY/WX    TMP DP  RH WIND       PRES   REMARKS
Georgetown     FAIR      66  64  94 CALM      30.00F
Kingstree      PTSUNNY   68  68 100 CALM      29.98F
Orangeburg     CLOUDY    70  69  97 CALM      29.97F
Barnwell       CLOUDY    72  72 100 CALM      29.97F
Aiken          CLOUDY    70  70 100 S6        30.00F
Manning        PTSUNNY   64  64 100 SE5       29.98S
Columbia       CLOUDY    71  71 100 SE3       29.96R
Sumter         CLOUDY    70  70 100 CALM      29.95F FOG
Florence       CLOUDY    71  70  96 CALM      29.99S FOG
Myrtle Beach   FAIR      74  73  97 S5        30.00S
N Myrtle Beach FAIR      75  72  90 SW8       29.99R

$$

GAZ063-065-086>088-099>101-113>116-118-119-134>141-150-261000-
...Southeast Georgia...

CITY           SKY/WX    TMP DP  RH WIND       PRES   REMARKS
Savannah Arpt  FAIR      73  72  96 S5        29.97S
Hunter AAF     FAIR      75  71  88 CALM      29.94S
Fort Stewart   FAIR      70  70  98 CALM      29.94S
Statesboro     CLOUDY    72  71  97 S5        29.97S
Sylvania       CLOUDY    73  73  99 S3        29.98S FOG
Claxton        CLOUDY    72  71  98 CALM      29.97R FOG

...CSRA, Central and far Southeast Georgia...

CITY           SKY/WX    TMP DP  RH WIND       PRES   REMARKS
Thomson        CLOUDY    71  70  98 SW6       30.00S FOG
Augusta-Bush   CLOUDY    72  71  97 SE6       29.95F
Augusta-Daniel CLOUDY    73  72  96 SE7       29.96F FOG
Swainsboro     PTSUNNY   72  72 100 CALM      29.96F
Vidalia        FAIR      72  68  88 CALM      29.96S
Eastman        FAIR      71  64  79 CALM      29.97F HAZE
Hazlehurst       N/A     73  69  88 S3        29.94S
Alma           FAIR      70  68  93 CALM      29.95S
Waycross       CLOUDY    71  68  90 CALM      29.96R FOG
Jesup          FAIR      72  69  89 CALM      29.96S
Baxley         FAIR      68  68 100 CALM      29.96R FOG
Brunswick        N/A     72  68  88 CALM      29.97S FOG
Saint Simons   FAIR      76  73  91 S3        29.96R

$$

SCZ027-028-034-036>038-045-046-048>050-GAZ119-141-261000-
...Lake and Supplemental Coastal Observations...

STATION/POSITION TIME  TEMP    WIND        PRES    WAVE   SWELL
                       AIR SEA DIR/SP/G            HT/PER HT/PER/DIR
                 (UTC) (F)     (DEG/KT/KT) (MB)    (FT/S) (FT/S/D)
Winyah Bay       NOT AVBL
Lake Murray      0820   73     180/  8/ 11 1013.5
ACE Basin NERRS  0745   76        CALM     1015.0
Fort Pulaski     0842   77 80  190/  4/  8 1015.1S
Sapelo Island    0800   75     210/  4     1014.0

$$

ANZ835-935-AMZ111-154-330-350-352-354-370-450-454-472-261000-
...C-MAN and Buoy Observations...

STATION/POSITION TIME  TEMP    WIND        PRES    WAVE   SWELL
                       AIR SEA DIR/SP/G            HT/PER HT/PER/DIR
                 (UTC) (F)     (DEG/KT/KT) (MB)    (FT/S) (FT/S/D)
Buoy 41004       0850      76  210/  6/  6 1015.3S   3/ 8   3/140/ 8
Buoy 41008       0850   76 77  170/ 10/ 10 1014.4R   3/ 9   2/ 80/ 9
Folly Beach CMAN 0800   78     170/  9/ 10 1015.9R
Capers Nearshore NOT AVBL
Fripp Nearshore  NOT AVBL


STATION/POSITION TIME  TEMP    WIND        PRES    WAVE   SWELL
                       AIR SEA DIR/SP/G            HT/PER HT/PER/DIR
                 (UTC) (F)     (DEG/KT/KT) (MB)    (FT/S) (FT/S/D)
5E St. Marys GA  0830      77                N/A     3/ 5
Frying Pan Buoy  0850   76 77  220/  6/  8 1015.8R   2/ 9   2/130/ 9
Buoy 41025       0850   77 78  240/ 12/ 16 1016.1S   3/ 9   2/150/ 9
Cape Lookout NC  0800          210/  6/  7 1016.0F
Buoy 41002       0850      79  210/  4/  6 1016.8S   3/ 8   3/130/ 8
Buoy 41010       0850   78 79  140/ 12/ 14 1015.5S   3/ 8   2/120/ 8
St Augustine FL  0900   75 78  180/  5/  6 1014.6S


$$



USA.gov is the U.S. government's official web portal to all federal, state and local government web resources and services.